Hourly Data Report for October 23, 2014

All times are specified in Local Standard Time (LST). Add 1 hour to adjust for Daylight Saving Time where and when it is observed.

IQALUIT CLIMATE
NUNAVUT

63°44'50.000" N
68°32'40.000" W
33.50 m
2402592
71321
XFB

Download Data

Hourly Data (October 2014)
Hourly Data Report for October 23, 2014
Temp Definition
°C
Dew Point Temp Definition
°C
Rel Hum Definition
%
Wind Dir Definition
10's deg

Wind Spd Definition
km/h
Visibility Definition
km
Stn Press Definition
kPa
Hmdx Definition


Wind Chill Definition


Weather Definition


TIME
00:00 -3.5 -4.9 90 33 19   100.48   -9 LegendNANA
01:00 -4.8 -5.8 92 30 15   100.51   -10 LegendNANA
02:00 -4.7 -5.8 92 32 21   100.53   -11 LegendNANA
03:00 -4.7 -5.4 95 33 19   100.57   -11 LegendNANA
04:00 -4.9 -6.4 89 33 30   100.63   -13 LegendNANA
05:00 -6.5 -8.3 87 33 32   100.75   -15 LegendNANA
06:00 -6.5 -9.5 79 34 33   100.86   -15 LegendNANA
07:00 -7.6 -10.8 78 34 32   100.95   -17 LegendNANA
08:00 -10.1 -12.8 81 33 38   101.03   -21 LegendNANA
09:00 -11.9 -14.7 80 33 32   101.15   -22 LegendNANA
10:00 -11.7 -15.1 76 34 40   101.18   -23 LegendNANA
11:00 -11.6 -15.6 72 34 31   101.31   -22 LegendNANA
12:00 -12.4 -16.0 75 33 41   101.34   -24 LegendNANA
13:00 -12.5 -16.0 75 33 39   101.40   -24 LegendNANA
14:00 -13.1 -16.5 75 33 32   101.50   -24 LegendNANA
15:00 -12.3 -15.6 76 35 36   101.53   -23 LegendNANA
16:00 -10.8 -13.9 78 32 31   101.62   -21 LegendNANA
17:00 -10.4 -14.1 74 31 25   101.66   -19 LegendNANA
18:00 -10.3 -13.4 78 30 19   101.71   -18 LegendNANA
19:00 -9.8 -12.6 80 32 9   101.71   -15 LegendNANA
20:00 -9.7 -12.1 82 34 5   101.70   -13 LegendNANA
21:00 -9.0 -11.4 82 33 15   101.71   -16 LegendNANA
22:00 -7.9 -11.4 76 31 33   101.67   -17 LegendNANA
23:00 -7.9 -11.4 76 31 34   101.63   -17 LegendNANA

Notes on Data Quality.

Legend

  • E = Estimated
  • M = Missing
  • NA = Not Available
  • ‡ = Partner data that is not subject to review by the National Climate Archives
Date modified: